User: anonymous   Login
Location: Unspecified
(0.0000°N, 0.0000°E)
Time: 20:18:26
(UTC+00:00)
Language:

COSMOS 2452 - Orbit

View from above orbital plane
View from above orbital plane
View from above satellite
View from above satellite

Ground track
Ground track

The orbit data is extracted from the following two-line orbital elements,

1 35499U 09036B   18017.19859111  .00000034  00000-0  17509-3 0  9992
2 35499  82.4886 193.2856 0015964   5.0384 355.0847 12.42908389387137
Epoch (UTC): 17 January 2018 04:45:58
Eccentricity: 0.0015964
inclination: 82.4886°
perigee height: 1482 km
apogee height: 1507 km
right ascension of ascending node: 193.2856°
argument of perigee: 5.0384°
revolutions per day: 12.42908389
mean anomaly at epoch: 355.0847°
orbit number at epoch: 38713

The dashed part of the orbit path shows where the satellite is in the earth's shadow,  

DLR